Weather in Krasnaya Presnya

Russia / Republic of Mordovia     54˚05′55″N   44˚01′43″E
temp.,
°C
wind,
m/s
gust,
m/s
humid.,
%
clouds,
%
prec.,
mm/h
press.,
hPa
HPBL,
m
16 january, sat
sat1600:00−11˚nne4795100 3.8 1003290
03:00−11˚nne3796100 7.5 1000357
06:00−12˚nw3496100 3.1 998203
09:00−12˚nw4695100 5.4 998374
12:00−12˚w5793100 0.8 999657
15:00−12˚w5893100 1.1 1000705
18:00−13˚wsw51094100 0.2 1001415
21:00−14˚w51193100 0.3 1003434
17 january, sun
sun1700:00−16˚wsw5109599 0.1 1005295
03:00−18˚wsw599697 0.1 1007248
06:00−20˚wsw489888 0.0 1008160
09:00−21˚wsw359882 0.1 101192
12:00−18˚w359487 0.0 1012270
15:00−18˚w239594 0.0 1013110
18:00−21˚w229881 0.0 101620
21:00−23˚wnw1110081 0.0 101720
18 january, mon
mon1800:00−25˚nw1110067 0.0 101820
03:00−26˚nw1110048 0.0 101820
06:00−26˚nne239870 0.0 101920
09:00−26˚ne009885 0.0 102019
12:00−22˚n1294100 0.0 1020134
15:00−21˚nnw1294100 0.0 1019190
18:00−22˚nne1196100 0.0 101938
21:00−21˚n1296100 0.0 1019129
19 january, tue
tue1900:00−21˚nne2297100 0.4 1019178
03:00−20˚nne1299100 0.9 1018134
06:00−20˚nne2399100 0.6 1018183
09:00−20˚nne2398100 1.0 1018145
12:00−18˚nne2394100 0.4 1017286
15:00−17˚n2395100 0.6 1016311
18:00−18˚n2597100 0.3 1017193
21:00−19˚n2598100 0.4 1018152
20 january, wed
wed2000:00−19˚nnw2598100 0.2 1019145
03:00−20˚nnw359899 0.3 1020159
06:00−23˚nnw349890 0.0 102255
09:00−25˚nnw339882 0.0 102436
12:00−21˚nnw249210 0.0 1025192
15:00−22˚nnw22925 0.0 102528
18:00−25˚nnw22910 0.0 102820
21:00−27˚wnw01910 0.0 102920